Regional Weather Roundup
Issued by NWS

Home | Current Version | Previous Version | Text Only | Print | Product List | Glossary Off
Versions: 1 2 3 4 5 6 7 8 9 10 11 12 13 14 15 16 17 18 19 20 21 22 23 24 25 26 27 28 29 30 31 32 33 34 35 36 37 38 39 40 41 42 43 44 45 46 47 48 49 50

000
ASUS43 KLMK 270702
RWRKY
KENTUCKY REGIONAL WEATHER ROUNDUP
NATIONAL WEATHER SERVICE LOUISVILLE KY
300 AM EDT WED AUG 27 2014

NOTE "FAIR" INDICATES FEW OR NO CLOUDS BELOW 12,000 FEET
WITH NO SIGNIFICANT WEATHER AND/OR OBSTRUCTIONS TO VISIBILITY.

KYZ001>023-026-027-061>063-070>075-270800-
WESTERN AND SOUTH CENTRAL KENTUCKY

CITY           SKY/WX    TMP DP  RH WIND       PRES   REMARKS
PADUCAH        CLEAR     75  71  87 CALM      30.06F
HENDERSON      CLEAR     73  70  88 CALM      30.06
OWENSBORO      CLEAR     76  74  93 CALM      30.07F
HOPKINSVILLE   CLEAR     74  74 100 CALM      30.07F
BOWLING GREEN  PTCLDY    74  72  93 CALM      30.08S
GLASGOW        CLEAR     69  69 100 CALM      30.09S FOG
$$

KYZ024-025-028>034-038-045-046-053-270800-
NORTH CENTRAL KENTUCKY

CITY           SKY/WX    TMP DP  RH WIND       PRES   REMARKS
LOUISVILLE/SDF PTCLDY    77  71  82 CALM      30.08F
LOUISVILLE/LOU PTCLDY    74  70  87 CALM      30.09S
FORT KNOX      CLEAR     71  71 100 NW2       30.09S
$$

KYZ035>037-039>044-047>052-055>060-089>105-270800-
NORTHEAST KENTUCKY

CITY           SKY/WX    TMP DP  RH WIND       PRES   REMARKS
LEXINGTON      LGT RAIN  72  65  78 CALM      30.11S
COVINGTON      PTCLDY    73  68  84 CALM      30.10S
FRANKFORT      CLEAR     70  67  90 CALM      30.09F
$$

KYZ054-064>069-076>088-106>120-270800-
SOUTHEAST KENTUCKY

CITY           SKY/WX    TMP DP  RH WIND       PRES   REMARKS
JACKSON        CLEAR     68  61  78 CALM      30.11S
LONDON         CLEAR     65  61  87 CALM      30.11F
SOMERSET       CLEAR     63  63 100 CALM      30.11S
MIDDLESBORO    CLEAR     62  62  97 CALM      30.12F
MONTICELLO     SUNNY     62  62 100 CALM      30.11F FOG
$$



USA.gov is the U.S. government's official web portal to all federal, state and local government web resources and services.